Location: *
(46.1833°N, 22.7667°E)
Time: 20:57:14
(UTC+00:00)

SL-16 R/B - Pass Details

Date: 17 September 2019
Orbit: 986 x 1006 km, 99.4° (Epoch: 14 October)

Event Time Altitude Azimuth Distance (km) Brightness Sun altitude
Exits shadow 23:50:33 39° 5° (N) 1,455 3.6 -38.1°
Drops below altitude 10° 23:54:25 10° 350° (N) 2,777 5.4 -37.7°
Sets 23:56:55 0° 348° (NNW) 3,733 6.1 -37.5°
